Location: LewisvilleTX
(33.0462°N, 96.9942°W)
Time: 13:15:47
(UTC+00:00)

Envisat - Pass Details

Date: 06 October 2019
Orbit: 764 x 766 km, 98.1° (Epoch: 14 November)

Event Time Altitude Azimuth Distance (km) Brightness Sun altitude
Rises 01:03:01 0° 179° (S) 3,216 6.2 -12.5°
Reaches altitude 10° 01:05:22 10° 184° (S) 2,294 5.5 -13.0°
Maximum altitude 01:10:17 51° 260° (W) 959 3.9 -14.0°
Drops below altitude 10° 01:15:13 10° 336° (NNW) 2,307 5.8 -15.0°
Sets 01:17:36 0° 342° (NNW) 3,237 6.5 -15.5°
